This demonstration page uses our WeatherBlox Daily Observations layout. Learn more.

Left ArrowRight Arrow

38.80484, -77.04692

Hourly Observations for October 6, 2021

Temp ( °F °C ) Dew Point ( °F °C ) Humidity (%) Winds ( mph kmh ) Pressure ( in mb ) Visibility ( mi km ) Precip ( " mm )
12:52 am 00:52 Cloudy 71 21.7 66 18.9 84 84 E 8 13 30.29 1026 10 16 0.00 0.00
1:52 am 01:52 Cloudy 70 21.1 65 18.3 84 84 E 7 11 30.29 1026 10 16 0.00 0.00
2:52 am 02:52 Cloudy with Mist and Fog 69 20.6 66 18.9 90 90 NE 9 15 30.29 1026 6 10 0.00 0.00
3:52 am 03:52 Cloudy with Mist and Fog 68 20 66 18.9 93 93 NE 9 15 30.29 1026 4 6 0.00 0.00
4:52 am 04:52 Cloudy 68 20 65 18.3 90 90 ENE 6 9 30.30 1026 9 14 0.00 0.00
5:52 am 05:52 Cloudy with Light Rain 68 20 65 18.3 90 90 NE 8 13 30.31 1026 5 8 0.01 0.25
6:48 am 06:48 Cloudy with Mist and Fog 68 20 66 19 94 94 ENE 8 13 30.32 1027 6 10 0.01 0.25
6:52 am 06:52 Cloudy with Mist and Fog 68 20 65 18.3 90 90 ENE 8 13 30.32 1027 6 10 0.01 0.25
7:21 am 07:21 Cloudy with Mist and Fog 68 20 65 18.3 90 90 NE 9 15 30.33 1027 4 6 0.00 0.00
7:52 am 07:52 Cloudy with Mist and Fog 68 20 66 18.9 93 93 NE 8 13 30.34 1027 4 6 0.00 0.00
8:52 am 08:52 Cloudy with Mist and Fog 69 20.6 65 18.3 87 87 ENE 9 15 30.35 1028 5 8 0.00 0.00
9:52 am 09:52 Cloudy with Drizzle 69 20.6 65 18.3 87 87 ENE 10 17 30.35 1028 3 5 0.00 0.00
10:10 am 10:10 Cloudy with Mist and Fog 69 20.6 65 18.3 87 87 ENE 12 19 30.36 1028 5 8 0.00 0.00
10:52 am 10:52 Cloudy with Mist and Fog 69 20.6 66 18.9 90 90 NE 9 15 30.36 1028 6 10 0.00 0.00
11:52 am 11:52 Cloudy 70 21.1 65 18.3 84 84 ENE 8 13 30.36 1028 7 11 0.00 0.00
12:47 pm 12:47 Cloudy 70 21 64 18 83 83 ENE 8 13 30.36 1028 8 13 0.00 0.00
12:52 pm 12:52 Cloudy 70 21.1 65 18.3 84 84 ENE 9 15 30.35 1028 8 13 0.00 0.00
1:52 pm 13:52 Cloudy 71 21.7 64 17.8 79 79 ESE 5 7 30.34 1027 10 16 0.00 0.00
2:02 pm 14:02 Cloudy 72 22.2 65 18.3 79 79 ESE 6 9 30.34 1027 10 16 0.00 0.00
2:52 pm 14:52 Cloudy 72 22.2 65 18.3 79 79 E 5 7 30.32 1027 10 16 0.00 0.00
3:52 pm 15:52 Cloudy 72 22.2 65 18.3 79 79 E 8 13 30.31 1027 10 16 0.00 0.00
4:52 pm 16:52 Cloudy 72 22.2 64 17.8 76 76 E 7 11 30.31 1026 10 16 0.00 0.00
5:52 pm 17:52 Cloudy 72 22.2 64 17.8 76 76 SE 6 9 30.30 1026 10 16 0.00 0.00
6:21 pm 18:21 Cloudy 72 22.2 64 17.8 76 76 SE 6 9 30.31 1026 10 16 0.00 0.00
6:52 pm 18:52 Cloudy 71 21.7 64 17.8 79 79 Calm 30.31 1027 10 16 0.00 0.00
7:52 pm 19:52 Mostly Cloudy 71 21.7 64 17.8 79 79 E 3 6 30.32 1027 10 16 0.00 0.00
8:52 pm 20:52 Mostly Cloudy 71 21.7 64 17.8 79 79 E 7 11 30.32 1027 10 16 0.00 0.00
9:52 pm 21:52 Mostly Cloudy 69 20.6 64 17.8 84 84 E 3 6 30.33 1027 10 16 0.00 0.00
10:52 pm 22:52 Mostly Cloudy 68 20 63 17.2 84 84 Calm 30.32 1027 10 16 0.00 0.00
11:52 pm 23:52 Mostly Cloudy 68 20 63 17.2 84 84 ENE 6 9 30.32 1027 10 16 0.00 0.00

Powered by AerisWeather